Prestonsburg, KY

9:23 AM EDT on May 26, 2017 (GMT -0400)
Prestonsburg

Weather History for KK22 - July, 2013

Change the Weather History Date:

Thursday, July 4, 2013

  Actual Average (KJKL) Record (KJKL)
Temperature  
Mean Temperature 72 °F -  
Max Temperature 81 °F 80 °F 95 °F (2012)
Min Temperature 65 °F 63 °F 56 °F (1986)
Cooling Degree Days 8    
Growing Degree Days 22 (Base 50)    
Moisture  
Dew Point 68 °F    
Average Humidity 89    
Maximum Humidity 99    
Minimum Humidity 70    
Precipitation  
Precipitation 0.00 in - - ()
Sea Level Pressure  
Sea Level Pressure 30.18 in    
Wind  
Wind Speed 2 mph (SSE)    
Max Wind Speed 8 mph    
Max Gust Speed -    
Visibility 10 miles    
Events Rain    
Averages and records for this station are not official NWS values.
T = Trace of Precipitation, MM = Missing Value Source: NWS Daily Summary

Daily Weather History Graph

Daily Weather History Graph

Search for Another Location

Airport or City:

Trip Planner

Search our weather history database for the weather conditions in past years. The results will help you decide how hot, cold, wet, or windy it might be!

Date:

Astronomy

Jul. 04, 2013 Rise Set
Actual Time 6:14 AM EDT 8:55 PM EDT
Civil Twilight 5:42 AM EDT 9:26 PM EDT
Nautical Twilight 5:04 AM EDT 10:05 PM EDT
Astronomical Twilight 4:20 AM EDT 10:49 PM EDT
Moon 3:28 AM EDT (7/4) 6:00 PM EDT (7/4)
Length of Visible Light 15h 43m
Length of Day
14h 41m
Waning Crescent, 11% of the Moon is Illuminated
Jul 4
Waning Crescent
Jul 8
New
Jul 15
First Quarter
Jul 22
Full
Jul 29
Last Quarter

Hourly Weather History & Observations

Time (EDT) Temp. Heat Index Dew Point Humidity Pressure Visibility Wind Dir Wind Speed Gust Speed Precip Events Conditions
12:15 AM 69.8 °F - 65.5 °F 86% 30.16 in 10.0 mi SSW 3.5 mph - N/A   Scattered Clouds
12:35 AM 69.4 °F - 65.5 °F 87% 30.16 in 10.0 mi Calm Calm - N/A   Scattered Clouds
12:55 AM 68.9 °F - 65.5 °F 89% 30.17 in 10.0 mi South 3.5 mph - N/A   Clear
1:15 AM 68.2 °F - 65.3 °F 90% 30.19 in 10.0 mi WSW 4.6 mph - N/A   Clear
1:35 AM 68.0 °F - 65.7 °F 92% 30.19 in 10.0 mi Calm Calm - N/A   Scattered Clouds
1:55 AM 68.0 °F - 65.7 °F 92% 30.19 in 10.0 mi SE 3.5 mph - N/A   Scattered Clouds
2:15 AM 67.6 °F - 65.8 °F 94% 30.19 in 10.0 mi Calm Calm - N/A   Mostly Cloudy
2:35 AM 68.0 °F - 65.3 °F 91% 30.20 in 10.0 mi South 3.5 mph - N/A   Mostly Cloudy
2:55 AM 68.4 °F - 65.3 °F 90% 30.19 in 10.0 mi Calm Calm - N/A   Scattered Clouds
3:15 AM 68.2 °F - 65.1 °F 90% 30.19 in 10.0 mi South 3.5 mph - N/A   Mostly Cloudy
3:35 AM 68.0 °F - 65.5 °F 92% 30.19 in 10.0 mi South 4.6 mph - N/A Rain Rain
3:55 AM 68.0 °F - 65.5 °F 92% 30.20 in 10.0 mi Calm Calm - N/A Rain Rain
4:15 AM 66.4 °F - 65.3 °F 96% 30.20 in 10.0 mi Calm Calm - N/A   Drizzle
4:35 AM 67.3 °F - 65.3 °F 93% 30.20 in 10.0 mi Calm Calm - N/A Rain Rain
4:55 AM 66.0 °F - 65.3 °F 98% 30.19 in 7.0 mi Calm Calm - N/A Rain Light Rain
5:15 AM 66.0 °F - 65.7 °F 99% 30.20 in 5.0 mi Calm Calm - N/A   Overcast
5:35 AM 66.2 °F - 65.8 °F 99% 30.21 in 10.0 mi Calm Calm - N/A   Overcast
5:55 AM 66.7 °F - 65.3 °F 95% 30.22 in 10.0 mi SSE 3.5 mph - N/A Rain Light Rain
6:15 AM 66.2 °F - 64.9 °F 96% 30.22 in 10.0 mi SE 3.5 mph - N/A Rain Light Rain
6:35 AM 65.8 °F - 64.8 °F 96% 30.22 in 10.0 mi SSE 3.5 mph - N/A Rain Light Rain
6:55 AM 65.7 °F - 64.9 °F 98% 30.22 in 10.0 mi ESE 3.5 mph - N/A Rain Light Rain
7:15 AM 65.5 °F - 64.9 °F 98% 30.22 in 10.0 mi Calm Calm - N/A Rain Light Rain
7:35 AM 65.8 °F - 65.3 °F 98% 30.22 in 10.0 mi ESE 3.5 mph - N/A Rain Light Rain
7:55 AM 66.4 °F - 65.7 °F 98% 30.22 in 10.0 mi ESE 3.5 mph - N/A   Mostly Cloudy
8:15 AM 66.9 °F - 65.3 °F 95% 30.22 in 10.0 mi Calm Calm - N/A   Scattered Clouds
8:35 AM 67.6 °F - 65.8 °F 94% 30.23 in 10.0 mi Calm Calm - N/A   Scattered Clouds
8:55 AM 68.2 °F - 66.4 °F 94% 30.22 in 10.0 mi East 3.5 mph - N/A Rain Light Rain
9:15 AM 68.0 °F - 66.4 °F 95% 30.22 in 10.0 mi Calm Calm - N/A Rain Light Rain
9:35 AM 68.0 °F - 66.2 °F 94% 30.23 in 10.0 mi Calm Calm - N/A Rain Light Rain
9:55 AM 68.5 °F - 66.2 °F 92% 30.23 in 10.0 mi Calm Calm - N/A Rain Light Rain
10:15 AM 68.9 °F - 67.3 °F 95% 30.22 in 10.0 mi Calm Calm - N/A Rain Light Rain
10:35 AM 69.4 °F - 67.5 °F 93% 30.22 in 10.0 mi Calm Calm - N/A Rain Rain
10:55 AM 70.2 °F - 68.0 °F 93% 30.22 in 10.0 mi SE 3.5 mph - N/A Rain Light Rain
11:15 AM 71.1 °F - 68.4 °F 91% 30.21 in 10.0 mi East 3.5 mph - N/A   Overcast
11:35 AM 71.6 °F - 68.5 °F 90% 30.21 in 10.0 mi SE 5.8 mph - N/A   Overcast
11:55 AM 73.4 °F - 69.6 °F 88% 30.20 in 10.0 mi ESE 5.8 mph - N/A   Overcast
12:15 PM 73.2 °F - 69.3 °F 87% 30.20 in 10.0 mi Calm Calm - N/A   Overcast
12:35 PM 74.3 °F - 68.9 °F 83% 30.21 in 10.0 mi SSE 4.6 mph - N/A   Overcast
12:55 PM 73.6 °F - 69.3 °F 86% 30.20 in 10.0 mi SE 4.6 mph - N/A Rain Light Rain
1:15 PM 74.1 °F - 69.8 °F 86% 30.20 in 10.0 mi SE 5.8 mph - N/A   Light Drizzle
1:35 PM 74.8 °F - 70.3 °F 86% 30.19 in 10.0 mi East 3.5 mph - N/A   Mostly Cloudy
1:55 PM 75.9 °F - 71.1 °F 85% 30.19 in 10.0 mi Calm Calm - N/A Rain Light Rain
2:15 PM 77.4 °F - 72.0 °F 83% 30.18 in 10.0 mi SE 3.5 mph - N/A   Scattered Clouds
2:35 PM 77.9 °F - 69.6 °F 76% 30.17 in 10.0 mi SE 5.8 mph - N/A   Scattered Clouds
2:55 PM 78.8 °F - 70.5 °F 76% 30.17 in 10.0 mi SE 4.6 mph - N/A   Mostly Cloudy
3:15 PM 79.0 °F - 70.5 °F 75% 30.16 in 10.0 mi South 3.5 mph - N/A   Mostly Cloudy
3:35 PM 79.2 °F - 70.2 °F 74% 30.16 in 10.0 mi Calm Calm - N/A   Mostly Cloudy
3:55 PM 80.6 °F 83.9 °F 70.2 °F 70% 30.15 in 10.0 mi South 3.5 mph - N/A   Mostly Cloudy
4:15 PM 79.9 °F - 72.0 °F 77% 30.14 in 10.0 mi West 3.5 mph - N/A   Mostly Cloudy
4:35 PM 80.2 °F 84.0 °F 71.8 °F 75% 30.14 in 10.0 mi Calm Calm - N/A   Mostly Cloudy
4:55 PM 79.5 °F - 72.0 °F 78% 30.14 in 10.0 mi Calm Calm - N/A   Overcast
5:15 PM 80.4 °F 84.7 °F 72.7 °F 77% 30.14 in 10.0 mi WNW 3.5 mph - N/A   Mostly Cloudy
5:35 PM 78.6 °F - 72.9 °F 82% 30.13 in 10.0 mi NNW 3.5 mph - N/A Rain Light Rain
5:55 PM 72.0 °F - 68.0 °F 87% 30.13 in 0.5 mi Calm Calm - N/A Rain Heavy Rain
6:15 PM 73.6 °F - 70.3 °F 90% 30.14 in 10.0 mi Calm Calm - N/A   Scattered Clouds
6:35 PM 74.7 °F - 70.3 °F 86% 30.13 in 10.0 mi Calm Calm - N/A   Clear
6:55 PM 74.1 °F - 71.8 °F 92% 30.13 in 10.0 mi Calm Calm - N/A   Scattered Clouds
7:15 PM 73.6 °F - 72.1 °F 95% 30.14 in 10.0 mi East 4.6 mph - N/A   Scattered Clouds
7:35 PM 74.1 °F - 72.5 °F 95% 30.14 in 10.0 mi Calm Calm - N/A   Light Drizzle
7:55 PM 74.5 °F - 73.0 °F 95% 30.14 in 10.0 mi East 3.5 mph - N/A   Clear
8:15 PM 74.3 °F - 72.9 °F 95% 30.14 in 10.0 mi East 3.5 mph - N/A   Clear
8:35 PM 73.6 °F - 72.5 °F 96% 30.14 in 10.0 mi Calm Calm - N/A   Scattered Clouds
8:55 PM 74.1 °F - 73.0 °F 96% 30.14 in 10.0 mi SE 4.6 mph - N/A   Mostly Cloudy
9:15 PM 74.8 °F - 72.0 °F 91% 30.14 in 10.0 mi SE 3.5 mph - N/A Rain Light Rain
9:35 PM 75.0 °F - 71.4 °F 89% 30.14 in 10.0 mi SE 4.6 mph - N/A   Light Drizzle
9:55 PM 75.6 °F - 70.5 °F 84% 30.15 in 10.0 mi South 6.9 mph - N/A Rain Light Rain
10:15 PM 75.2 °F - 70.7 °F 86% 30.15 in 10.0 mi South 5.8 mph - N/A   Drizzle
10:35 PM 75.2 °F - 70.0 °F 84% 30.16 in 10.0 mi South 8.1 mph - N/A   Light Drizzle
10:55 PM 74.5 °F - 69.6 °F 85% 30.17 in 10.0 mi South 8.1 mph - N/A   Drizzle
11:15 PM 73.8 °F - 69.3 °F 86% 30.17 in 10.0 mi SSW 5.8 mph - N/A   Drizzle
11:35 PM 73.2 °F - 69.1 °F 87% 30.17 in 10.0 mi South 4.6 mph - N/A   Light Drizzle
11:55 PM 73.0 °F - 68.7 °F 86% 30.17 in 10.0 mi WSW 3.5 mph - N/A   Scattered Clouds